Sphinx

operational
NORAD ID: 63232 Int'l Des: 2025-052 Owner: VESTGO/ADIG Country: US
LEOCIRCULARRETROGRADESSO

关于 Sphinx

正在加载描述...

实时位置

正在加载3D地球...

即将过境

高度历史

Altitude vs Time

uPlot chart will show altitude changes over time

两行轨道根数

1 63232U 25052Y 26061.12586223 .00008676 00000-0 37715-3 0 9997
2 63232 97.4092 315.6394 0006570 149.7212 210.4405 15.22497573 53575
Epoch: Mar 2, 2026 • Age: 35 hours

当前状态

高度 503.6 km
速度 7.61 km/s
星下点 13.97°N, 5.57°W
发射日期 Mar 15, 2025
运行时间 0.9 years
类型 other

技术详情

分类 Payload
质量 32.00 kg
干质量 32.00 kg
总质量 32.00 kg
长度 0.80 m
直径 0.40 m
跨度 0.40 m
形状 Box
制造商 ADIG
平台类型 Corvus-Micro
阶段状态 In Orbit
所有者/国家 VESTGO/ADIG/US

大型星座

Loading constellations...